Regional Weather Roundup
Issued by NWS

Home | Current Version | Previous Version | Text Only | Print | Product List | Glossary On
Versions: 1 2 3 4 5 6 7 8 9 10 11 12 13 14 15 16 17 18 19 20 21 22 23 24 25 26 27 28 29 30 31 32 33 34 35 36 37 38 39 40 41 42 43 44 45 46 47 48 49 50
000
ASUS45 KPSR 070910
RWRAZ

ARIZONA REGIONAL HOURLY WEATHER ROUNDUP
NATIONAL WEATHER SERVICE PHOENIX AZ
200 AM MST THU MAY 07 2015

NOTE: FAIR INDICATES FEW OR NO CLOUDS BELOW 12,000 FEET WITH NO
SIGNIFICANT WEATHER AND/OR OBSTRUCTIONS TO VISIBILITY.

AZZ001>003-036-071000-
NORTHWEST ARIZONA

CITY           SKY/WX    TMP DP  RH WIND       PRES   REMARKS
BULLHEAD CITY  CLEAR     73  36  25 SE17      29.64F
KINGMAN        CLEAR     56  34  43 S10       29.75F
$$

AZZ004>008-015-016-018-071000-
NORTH CENTRAL ARIZONA

CITY           SKY/WX    TMP DP  RH WIND       PRES   REMARKS
GRAND CANYON   CLEAR     30  23  75 CALM      29.89F
WILLIAMS       CLEAR     43  27  52 S12       29.95F
PRESCOTT       CLEAR     45  29  53 CALM      29.86F
FLAGSTAFF      CLEAR     39  30  70 VRB3      29.91F
PAYSON         CLEAR     54  32  43 S7        29.91F
PAGE           PTCLDY    59  31  34 S3        29.78F
$$

AZZ009>014-017-071000-
NORTHEAST ARIZONA

CITY           SKY/WX    TMP DP  RH WIND       PRES   REMARKS
WINSLOW        CLEAR     44  30  57 CALM      29.87F
SAINT JOHNS    CLEAR     47  28  47 S6        29.91F
WINDOW ROCK    CLEAR     37  30  75 CALM      29.94F
SHOW LOW       CLEAR     43  32  65 SE9       29.94F
$$

AZZ023-071000-
GREATER PHOENIX AREA

CITY           SKY/WX    TMP DP  RH WIND       PRES   REMARKS
PHOENIX        CLEAR     69  40  34 CALM      29.75F
LUKE AFB       CLEAR     65  38  36 SW7       29.75S
DEER VALLEY    CLEAR     64  35  34 CALM      29.77S
SCOTTSDALE     CLEAR     67  39  35 E3        29.78F
MESA-GATEWAY   CLEAR     64  41  42 S9        29.80S
$$

AZZ027-028-071000-
SOUTHWEST MARICOPA COUNTY AND PINAL COUNTY

CITY           SKY/WX    TMP DP  RH WIND       PRES   REMARKS
CASA GRANDE    CLEAR     64  39  39 S5        29.77F
GILA BEND      FAIR      64  40  41 S8        29.75S
$$

AZZ503-504-507>509-071000-
SOUTHEAST ARIZONA

CITY           SKY/WX    TMP DP  RH WIND       PRES   REMARKS
TUCSON         CLEAR     68  30  24 S7        29.84F
DAVIS-MONTHAN  CLEAR     64  31  29 S8        29.83F
NOGALES        CLEAR     57  37  47 SE3       29.89F
SIERRA VISTA   CLEAR     60  32  35 VRB7      29.91F
DOUGLAS        CLEAR     57  38  48 SE6       29.90F
SAFFORD        CLEAR     61  37  41 NW8       29.82F
$$

AZZ020-021-025-026-031-071000-
SOUTHWEST ARIZONA

CITY           SKY/WX    TMP DP  RH WIND       PRES   REMARKS
YUMA           CLEAR     68  44  42 CALM      29.74S
$$

CAZ031-033-041-043-047-048-061-071000-
SOUTHERN CALIFORNIA

CITY           SKY/WX    TMP DP  RH WIND       PRES   REMARKS
DOWNTOWN L.A.  CLOUDY    59  48  67 CALM      29.86F
L.A. AIRPORT   MOCLDY    57  50  77 W7        29.87F
SAN DIEGO      MOCLDY    60  49  66 SW8       29.90F
BURBANK        CLOUDY    58  45  62 SE6       29.85F
ONTARIO        CLOUDY    57  47  69 SW8       29.85F
RIVERSIDE      CLOUDY    57  49  74 W6        29.86F
PALM SPRINGS   CLEAR     69  39  33 NW14      29.70F
EL CENTRO NAS  CLEAR     64  42  44 W18       29.74F
IMPERIAL       CLEAR     63  44  50 W14       29.71F
BLYTHE         CLEAR     63  48  58 S12       29.71S
NEEDLES        CLEAR     73  38  27 S12       29.66S
$$

NVZ020-UTZ003-071000-
SOUTHERN NEVADA-UTAH

CITY           SKY/WX    TMP DP  RH WIND       PRES   REMARKS
LAS VEGAS      CLEAR     68  32  26 S12       29.61F
SALT LAKE CITY CLOUDY    49  46  90 CALM      29.79F
$$

NMZ009-TXZ055-071000-
NEW MEXICO-WEST TEXAS

CITY           SKY/WX    TMP DP  RH WIND       PRES   REMARKS
ALBUQUERQUE    PTCLDY    54  44  69 NW7       29.90F
EL PASO        PTCLDY    72  26  18 W18       29.85S
$$


........................KEY........................
SKY/WX - SKY CONDITION/WEATHER
TMP    - TEMPERATURE IN FAHRENHEIT
DP     - DEW POINT IN FAHRENHEIT
RH     - RELATIVE HUMIDITY IN PERCENT
WIND   - DIRECTION AND SPEED IN MILES PER HOUR (MPH)
VRB    - VARIABLE WIND DIRECTION
PRES   - MEAN SEA LEVEL PRESSURE IN INCHES OF MERCURY
         F - FALLING PRESSURE   R - RISING PRESSURE
         S - STEADY PRESSURE
VSB    - VISIBILITY IN MILES
HX     - HEAT INDEX IN FAHRENHEIT
WCI    - WIND CHILL INDEX IN FAHRENHEIT
TC     - TEMPERATURE IN CELSIUS WHICH IS ALSO KNOWN AS
         TEMPERATURE IN CENTIGRADE
AFB    - AIR FORCE BASE
         LUKE AFB IS LUKE AIR FORCE BASE
         DAVIS-MONTHAN IS DAVIS-MONTHAN AIR FORCE BASE
NAS    - NAVAL AIR STATION
         EL CENTRO NAS IS EL CENTRO NAVAL AIR STATION
N/A    - NOT AVAILABLE




USA.gov is the U.S. government's official web portal to all federal, state and local government web resources and services.